User: anonymous
Location: Hamburg
(53.5500°N, 10.0000°E)
Time: 15:57:22
(UTC+02:00)
Language:

Courier 1B - Orbit

View from above orbital plane
View from above orbital plane
View from above satellite
View from above satellite

Ground track
Ground track

The orbit data is extracted from the following two-line orbital elements,

1 00058U 60013A   14112.10284670  .00000130  00000-0  65661-4 0  6494
2 00058 028.3293 340.7921 0165112 175.4501 184.7579 13.46275601635939
Epoch (UTC): 22 April 2014 02:28:05
Eccentricity: 0.0165112
inclination: 28.3293°
perigee height: 963 km
apogee height: 1209 km
right ascension of ascending node: 340.7921°
argument of perigee: 175.4501°
revolutions per day: 13.46275601
mean anomaly at epoch: 184.7579°
orbit number at epoch: 63593

The dashed part of the orbit path shows where the satellite is in the earth's shadow,  

DLR